Location: Hamayl? Da??
(36.7028°N, 30.1716°E)
Time: 20:15:07
(UTC+00:00)

Vanguard 1 Rocket - Visible Passes

Search period start: 08 November 2024 00:00
Search period end: 18 November 2024 00:00
Orbit: 651 x 4217 km, 34.3° (Epoch: 07 November)

Date Brightness Start Highest point End Pass type
(mag) Time Alt. Az. Time Alt. Az. Time Alt. Az.
08 Nov 8.7 16:57:19 10° W 17:04:33 33° SW 17:07:11 22° SSE visible
09 Nov 8.6 15:42:10 10° W 15:52:47 55° SSW 15:58:34 10° SE visible
09 Nov 9.9 18:15:03 10° WSW 18:16:16 11° SW 18:16:31 11° SW visible
10 Nov 9.2 16:58:09 10° W 17:04:59 26° SW 17:08:39 14° S visible
11 Nov 9.0 15:42:38 10° W 15:53:21 47° SSW 15:59:15 10° SE visible
12 Nov 9.7 16:59:12 10° W 17:05:17 20° SW 17:09:34 10° S visible
13 Nov 9.5 15:43:08 10° W 15:53:47 40° SW 15:59:48 10° SSE visible
14 Nov 10.0 17:00:38 10° W 17:05:26 15° SW 17:09:07 10° SSW visible
15 Nov 9.8 15:43:41 10° W 15:54:04 33° SW 16:00:09 10° SSE visible
16 Nov 10.5 17:03:12 10° WSW 17:05:29 11° SW 17:07:30 10° SW visible
17 Nov 10.1 15:44:24 10° W 15:54:12 27° SW 16:00:16 10° S visible
